[Iaude] MPEC T133: 2023 TL4 [a=1.49,e=0.58,i=60.7,H=20.0,PHA]
    mpec at marsden.cfa.harvard.edu 
    mpec at marsden.cfa.harvard.edu
       
    Tue Oct 10 10:05:11 EDT 2023
    
    
  
M.P.E.C. 2023-T133                             Issued 2023 October 10, 14:03 UT
     The Minor Planet Electronic Circulars contain information on unusual
         minor planets, routine data on comets and natural satellites,
         and occasional editorial announcements.  They are published
    on behalf of Division F of the International Astronomical Union by the
          Minor Planet Center, Smithsonian Astrophysical Observatory,
                          Cambridge, MA 02138, U.S.A.
			  
             Prepared using the Tamkin Foundation Computer Network
                              MPC at CFA.HARVARD.EDU
            URL https://www.minorplanetcenter.net/    ISSN 1523-6714
                                    2023 TL4                                    
Observations:
     K23T04L* C2023 10 08.34981206 27 00.074+00 33 39.10         15.27oVET133W68
     K23T04L  C2023 10 08.35388606 26 39.295+00 26 38.83         15.36oVET133W68
     K23T04L  C2023 10 08.36069906 26 04.481+00 14 55.57         15.30oVET133W68
     K23T04L  C2023 10 08.37715306 24 40.411-00 13 22.15         15.34oVET133W68
     K23T04L  C2023 10 08.38538006 23 58.296-00 27 32.26         15.38oVET133W68
     K23T04L  C2023 10 08.43678 06 19 44.05 -02 00 59.3          15.6 VtET133V27
     K23T04L  C2023 10 08.43868 06 19 34.26 -02 04 16.6          15.3 VtET133V27
     K23T04L  C2023 10 08.44730 06 18 50.24 -02 19 06.6          15.2 VtET133V27
     K23T04L  C2023 10 08.44921 06 18 40.44 -02 22 24.3          15.1 VtET133V27
     K23T04L  C2023 10 08.45017 06 18 35.51 -02 24 03.7          15.1 VtET133V27
     K23T04L  C2023 10 08.45279 06 18 22.11 -02 28 34.1          15.0 VtET133V27
     K23T04L KC2023 10 08.46759506 17 07.714-02 53 48.23         15.18GVET133I52
     K23T04L KC2023 10 08.46787406 17 06.277-02 54 16.78         15.17GVET133I52
     K23T04L KC2023 10 08.46816606 17 04.787-02 54 47.09         15.20GVET133I52
     K23T04L KC2023 10 08.46844906 17 03.340-02 55 16.54         15.17GVET133I52
     K23T04L  C2023 10 08.47850606 16 22.531-03 11 39.19         15.52cVET133T05
     K23T04L  C2023 10 08.47895806 16 20.244-03 12 25.45         15.54cVET133T05
     K23T04L  C2023 10 08.47941106 16 17.995-03 13 11.60         15.50cVET133T05
     K23T04L  C2023 10 08.47986206 16 15.667-03 13 58.12         15.55cVET133T05
     K23T04L  C2023 10 08.48001806 16 02.967-03 15 17.79         15.1 GVET133H01
     K23T04L  C2023 10 08.48031406 16 13.392-03 14 43.87         15.51cVET133T05
     K23T04L  C2023 10 08.48388406 15 43.207-03 21 55.45         15.1 GVET133H01
     K23T04L  C2023 10 08.49578806 14 42.161-03 42 22.62         15.2 GVET133H01
     K23T04L  C2023 10 08.50249406 14 07.763-03 53 53.42         15.2 GVET133H01
     K23T04L KC2023 10 09.08808805 25 44.290-19 31 42.89         15.4 GVET133J95
     K23T04L KC2023 10 09.08893805 25 40.150-19 32 55.46         15.3 GVET133J95
     K23T04L KC2023 10 09.08976505 25 36.120-19 34 06.71         15.4 GVET133J95
     K23T04L KC2023 10 09.09063805 25 31.822-19 35 20.54         15.3 GVET133J95
     K23T04L KB2023 10 09.09299505 25 20.85 -19 38 29.7          15.2 GVET133I93
     K23T04L KB2023 10 09.09398305 25 16.00 -19 39 54.5          15.1 GVET133I93
     K23T04L KB2023 10 09.09494305 25 11.32 -19 41 16.8          15.2 GVET133I93
     K23T04L KB2023 10 09.09590405 25 06.58 -19 42 38.4          15.1 GVET133I93
     K23T04L KB2023 10 09.09685905 25 01.91 -19 44 00.0          15.2 GVET133I93
     K23T04L hC2023 10 09.09802105 24 53.31 -19 45 45.0          15.1 GVET133L01
     K23T04L hC2023 10 09.09857505 24 50.60 -19 46 32.9          14.9 GVET133L01
     K23T04L hC2023 10 09.09928105 24 47.12 -19 47 33.2          14.8 GVET133L01
     K23T04L KC2023 10 09.10428805 24 24.34 -19 54 33.1          15.4 GXET133C95
     K23T04L KC2023 10 09.11145305 23 49.22 -20 04 39.8          15.1 GXET133C95
     K23T04L KC2023 10 09.11847805 23 14.79 -20 14 31.5          15.1 GXET133C95
     K23T04L KC2023 10 09.14256005 21 18.307-20 48 13.64         15.4 GVET133J95
     K23T04L KC2023 10 09.14345405 21 13.944-20 49 27.19         15.4 GVET133J95
     K23T04L KC2023 10 09.14432905 21 09.694-20 50 40.06         15.5 GVET133J95
     K23T04L KC2023 10 09.14519905 21 05.453-20 51 52.06         15.6 GVET133J95
     K23T04L 7C2023 10 09.21646405 15 20.021-22 27 45.92         15.2 GVET133Z84
     K23T04L 7C2023 10 09.21739605 15 15.525-22 28 59.77         15.2 GVET133Z84
     K23T04L 7C2023 10 09.21833505 15 10.990-22 30 14.44         15.2 GVET133Z84
     K23T04L  C2023 10 09.28471005 10 09.154-23 52 08.54         14.79oVET133W68
     K23T04L  C2023 10 09.28741905 09 56.239-23 55 35.69         14.90oVET133W68
     K23T04L  C2023 10 09.29058705 09 41.129-23 59 37.57         15.09oVET133W68
     K23T04L  C2023 10 09.29783105 09 06.564-24 08 49.13         14.85oVET133W68
     K23T04L KC2023 10 09.35115005 04 57.51 -25 18 50.1          15.7 VuET133H21
     K23T04L KC2023 10 09.35221105 04 52.52 -25 20 07.9          14.7 VuET133H21
     K23T04L KC2023 10 09.35327105 04 47.56 -25 21 25.5          16.0 VuET133H21
     K23T04L KC2023 10 09.35433305 04 42.56 -25 22 42.9          15.6 VuET133H21
     K23T04L KC2023 10 09.35539405 04 37.58 -25 24 00.7          15.5 VuET133H21
     K23T04L KC2023 10 09.35751705 04 27.59 -25 26 35.2          15.3 VuET133H21
     K23T04L KC2023 10 09.40145005 01 07.583-26 18 43.60         14.97GVET133I52
     K23T04L KC2023 10 09.40186405 01 05.653-26 19 12.76         14.96GVET133I52
     K23T04L KC2023 10 09.40227605 01 03.738-26 19 42.02         14.96GVET133I52
     K23T04L KC2023 10 09.40268505 01 01.816-26 20 10.68         14.92GVET133I52
     K23T04L KC2023 10 09.40614905 00 44.41 -26 24 23.8          14.9 GXET133858
     K23T04L KC2023 10 09.41029805 00 25.08 -26 29 15.6          15.0 GXET133858
     K23T04L KC2023 10 09.41452905 00 05.39 -26 34 12.7          14.9 GXET133858
     K23T04L KC2023 10 09.41872704 59 45.85 -26 39 06.5          15.0 GXET133858
     K23T04L KC2023 10 09.42276204 59 27.10 -26 43 47.9          15.0 GXET133858
     K23T04L KB2023 10 10.13994 04 09 50.73 -37 26 20.3          15.2 VqET133X33
     K23T04L KB2023 10 10.14080 04 09 47.62 -37 26 54.8          14.7 VqET133X33
     K23T04L KB2023 10 10.14159 04 09 44.23 -37 27 28.6          14.1 VqET133X33
     K23T04L KB2023 10 10.15761 04 08 43.42 -37 38 14.5          14.5 VqET133X33
     K23T04L KB2023 10 10.15925 04 08 37.20 -37 39 23.3          15.4 VqET133X33
     K23T04L KB2023 10 10.16084 04 08 31.10 -37 40 28.0          15.8 VqET133X33
     K23T04L 0C2023 10 10.24058 04 03 32.84 -38 30 27.3                VET133X07
     K23T04L 0C2023 10 10.24182 04 03 28.23 -38 31 13.8                VET133X07
     K23T04L 0C2023 10 10.24307 04 03 23.60 -38 32 00.3                VET133X07
     K23T04L 0C2023 10 10.24433 04 03 18.95 -38 32 47.4          15.2 GVET133X07
     K23T04L  C2023 10 10.53309 03 46 46.42 -41 10 59.5          15.6 GVET133Q38
     K23T04L  C2023 10 10.53358 03 46 44.82 -41 11 14.2          15.6 GVET133Q38
     K23T04L  C2023 10 10.53405 03 46 43.22 -41 11 28.9          15.8 GVET133Q38
     K23T04L  C2023 10 10.53454 03 46 41.62 -41 11 42.9          15.7 GVET133Q38
     K23T04L  C2023 10 10.53517 03 46 39.48 -41 12 02.0          15.7 GVET133Q38
Observer details:
858 Tebbutt Observatory, Edgewood.  Observer F. B. Zoltowski.  0.16-m f/7
    Refractor + CCD.
C95 SATINO Remote Observatory, Haute Provence.  Observer J. Jahn.  0.60-m
    f/3.2 Newtonian reflector + CCD.
H01 Magdalena Ridge Observatory, Socorro.  Observers W. H. Ryan, E. V. Ryan.
    Measurer W. H. Ryan.  2.4-m f/8.9 Ritchey-Chretien + CCD.
H21 Astronomical Research Observatory, Westfield.  Observer R. Holmes.
    Measurers T. Linder, R. Holmes, L. Horn.  0.81-m f/4.0 astrograph + CCD.
I52 Steward Observatory, Mt. Lemmon Station.  Observer J. B. Fazekas.
    Measurers E. C. Beshore, D. Fay, J. B. Fazekas, D. C. Fuls, A. R. Gibbs,
    A. D. Grauer, H. Groeller, J. K. Hogan, R. A. Kowalski, S. M. Larson, G.
    J. Leonard, D. Rankin, R. L. Seaman, F. C. Shelly, K. W. Wierzchos.  1.0-m
    prime focus + CCD.
I93 St Pardon de Conques.  Observer F. Losse.  0.40-m f/3.7 reflector + CMO.
J95 Great Shefford.  Observer P. Birtwhistle.  0.41-m f/6.3 Schmidt-Cassegrain
    + CCD.
L01 Visnjan Observatory, Tican.  Observer K. Korlevic.  1.0-m f/2.9 reflector
    + CCD.
Q38 Swan Hill.  Observer M. Mattiazzo.  C11 RASA f/2.2 + QHY163m coldmos.
T05 ATLAS-HKO, Haleakala.  Observers L. Denneau, R. Siverd, J. Tonry, H.
    Weiland.  Measurers L. Denneau, N. Erasmus, A. Fitzsimmons, A. Lawrence,
    J. Robinson, R. Siverd, J. Tonry, H. Weiland.  0.5-m Reflector + CCD.
V27 North Mesa Observatory, Los Alamos.  Observer B. K. Kendrick.  0.25-m f/6
    reflector + CCD.
W68 ATLAS Chile, Rio Hurtado.  Observers L. Denneau, R. Siverd, J. Tonry, H.
    Weiland.  Measurers L. Denneau, N. Erasmus, A. Fitzsimmons, A. Lawrence,
    J. Robinson, R. Siverd, J. Tonry, H. Weiland.  0.5-m Reflector + CCD.
X07 iTelescope Deep Sky Chile, Rio Hurtado.  Observer H. Sato.  0.51-m f/6.8
    astrograph + CCD.
X33 OARU, Manaus.  Observer G. Nobre.  0.20-m f/5.0 Reflector + CMO.
Z84 Calar Alto-Schmidt.  Observers F. Ocana, M. Micheli, R. Kresken, L.
    Conversi.  Measurers F. Ocana, M. Micheli.  0.8-m f/3 Schmidt + CCD.
Orbital elements:
2023 TL4                                            PHA, Earth MOID = 0.0032 AU
Epoch 2023 Sept. 13.0 TT = JDT 2460200.5                Bell                    
M  14.59264              (2000.0)            P               Q                  
n   0.54321075     Peri.   89.19998     +0.11936457     +0.96417838             
a   1.4876148      Node   195.75791     -0.78220370     +0.23826535             
e   0.5800312      Incl.   60.72128     +0.61148137     +0.11657478             
mailing list